www.pogodaiklimat.ru

Погода и климат >> Архив погоды >> Австралия >> Mandora


ПОГОДА в Mandora

  • Прогноз погоды в Mandora
  • Монитор погоды в Mandora
  • Климат города

АРХИВ ПОГОДЫ в Mandora

Время (UTC), дата Ветер
(напр.,м/с)
 
Видим.   Явления Облачность Т
(С)
Тd
(С)
f
(%)
Тe
(С)
Тes
(С)
Комфортность P
(гПа)
Po
(гПа)
Тmin
(С)
Tmax
(С)
R
(мм)
R24
(мм)
S
(см)
22 17.04 штиль 0 н/о н/о +19.2 +19.2 100 +21 +21 комфорт 1011.4 1010.5
00 18.04 ЮВ 2 н/о н/о +23.1 +18.0 73 +29 +29 очень
душно
1012.3 1011.4
01 18.04 ЮВ 3 н/о н/о +27.3 +13.3 42 +29 +29 жарко 1012.2 1011.3 +18.7
03 18.04 В 4 н/о н/о +34.2 +13.1 28 +35 +35 очень
жарко
1011.1 1010.2
04 18.04 В 3 н/о н/о +37.5 +12.8 23 +37 +37 очень
жарко
1009.9 1009.0
06 18.04 В 2 н/о н/о +38.5 +10.8 19 +37 +37 очень
жарко
1008.1 1007.2
07 18.04 СВ 2 н/о н/о +36.2 +17.4 33 +39 +39 очень
душно
1007.8 1006.9
09 18.04 СЗ 4 н/о н/о +30.8 +23.7 66 +42 +42 опасность
перегрева
1008.5 1007.6
10 18.04 СЗ 3 н/о н/о +29.0 +24.1 75 +40 +40 очень
душно
1009.0 1008.1
12 18.04 З 3 н/о н/о +27.1 +24.7 87 +39 +39 очень
душно
1010.4 1009.5
13 18.04 З 1 н/о н/о +26.8 +25.2 91 +39 +39 очень
душно
1010.9 1010.0 +39.3
15 18.04 ЮЗ 2 н/о н/о +25.2 +25.2 100 +36 +36 очень
душно
1010.4 1009.5
16 18.04 штиль 0 н/о н/о +23.9 +23.9 100 +33 +33 очень
душно
1009.9 1009.0
18 18.04 ЮЗ 2 н/о н/о +22.8 +22.8 100 +31 +31 очень
душно
1009.6 1008.7
19 18.04 ЮВ 2 н/о н/о +21.4 +21.4 100 +27 +27 душно 1009.4 1008.5
21 18.04 Ю 2 н/о н/о +19.9 +19.9 100 +24 +24 комфорт 1009.7 1008.8
22 18.04 штиль 0 н/о н/о +20.1 +20.1 100 +24 +24 комфорт 1010.2 1009.3
00 19.04 ЮЗ 3 н/о н/о +24.5 +19.8 75 +30 +30 очень
душно
1010.9 1010.0
01 19.04 Ю 2 н/о н/о +28.4 +16.3 48 +32 +32 душно 1011.2 1010.3 +19.8
03 19.04 Ю 4 н/о н/о +34.3 +8.8 21 +33 +33 жарко 1010.2 1009.3
04 19.04 ЮВ 4 н/о н/о +36.6 +7.6 17 +35 +35 очень
жарко
1009.2 1008.3
06 19.04 В 3 н/о н/о +39.0 +6.7 14 +36 +36 очень
жарко
1007.8 1006.9
07 19.04 ЮЗ 3 н/о н/о +38.2 +3.8 12 +35 +35 очень
жарко
1007.6 1006.7
09 19.04 СЗ 3 н/о н/о +33.2 +15.7 35 +36 +36 очень
душно
1007.8 1006.9
10 19.04 З 3 н/о н/о +28.6 +21.1 64 +36 +36 очень
душно
1008.1 1007.2
12 19.04 ЮЗ 3 н/о н/о +25.3 +20.8 76 +32 +32 очень
душно
1009.5 1008.6
13 19.04 ЮЗ 3 н/о н/о +24.7 +17.4 64 +29 +29 душно 1010.0 1009.1 +39.4
15 19.04 Ю 3 н/о н/о +21.3 +15.8 71 +25 +25 комфорт 1010.4 1009.5
16 19.04 Ю 3 н/о н/о +21.2 +15.5 70 +24 +24 комфорт 1010.2 1009.3
18 19.04 ЮЗ 3 н/о н/о +21.3 +11.3 53 +23 +23 комфорт 1009.6 1008.7
19 19.04 Ю 3 н/о н/о +22.0 +11.1 50 +24 +24 комфорт 1009.7 1008.8
21 19.04 Ю 3 н/о н/о +21.0 +9.9 49 +23 +23 комфорт 1009.9 1009.0
22 19.04 Ю 3 н/о н/о +19.9 +10.3 54 +21 +21 комфорт 1010.3 1009.4
00 20.04 Ю 3 н/о н/о +29.0 +9.2 29 +29 +29 жарко 1011.4 1010.5
01 20.04 Ю 3 н/о н/о +33.3 +10.0 24 +33 +33 жарко 1011.6 1010.7 +19.5
03 20.04 Ю 4 н/о н/о +36.4 +9.1 19 +35 +35 очень
жарко
1010.8 1009.9
04 20.04 ЮВ 3 н/о н/о +38.1 +7.0 15 +36 +36 очень
жарко
1009.7 1008.8
06 20.04 В 2 н/о н/о +38.9 +11.1 19 +38 +38 очень
жарко
1008.4 1007.5
07 20.04 СЗ 4 н/о н/о +36.0 +19.0 37 +41 +41 опасность
перегрева
1008.3 1007.4
09 20.04 СЗ 3 н/о н/о +31.7 +22.4 58 +41 +41 опасность
перегрева
1008.9 1008.0
10 20.04 З 2 н/о н/о +28.7 +23.8 75 +40 +40 очень
душно
1009.4 1008.5
12 20.04 ЮЗ 3 н/о н/о +25.9 +24.9 94 +37 +37 очень
душно
1010.9 1010.0
13 20.04 З 3 н/о н/о +26.4 +24.4 89 +37 +37 очень
душно
1011.2 1010.3 +40.0
15 20.04 Ю 4 н/о н/о +24.0 +17.0 65 +28 +28 душно 1011.1 1010.2
16 20.04 ЮЗ 3 н/о н/о +23.3 +15.9 63 +28 +28 душно 1010.9 1010.0
18 20.04 Ю 4 н/о н/о +24.2 +11.5 45 +26 +26 жарко 1010.6 1009.7
19 20.04 Ю 4 н/о н/о +23.8 +11.2 45 +25 +25 комфорт 1010.6 1009.7
21 20.04 Ю 3 н/о н/о +23.2 +10.3 44 +25 +25 комфорт 1011.0 1010.1
22 20.04 Ю 2 н/о н/о +20.2 +11.1 56 +22 +22 комфорт 1011.1 1010.2
00 21.04 Ю 3 н/о н/о +29.4 +11.0 32 +30 +30 жарко 1011.8 1010.9
01 21.04 Ю 3 н/о н/о +32.9 +10.3 25 +32 +32 жарко 1012.2 1011.3 +19.7
03 21.04 В 2 н/о н/о +37.3 +14.6 26 +38 +38 душно 1011.4 1010.5
04 21.04 СВ 3 н/о н/о +35.6 +14.8 29 +37 +37 душно 1010.6 1009.7
06 21.04 С 4 н/о н/о +35.6 +17.8 35 +39 +39 очень
душно
1009.1 1008.2
07 21.04 С 4 н/о н/о +34.4 +16.3 34 +37 +37 очень
душно
1008.7 1007.8
09 21.04 С 4 н/о н/о +30.9 +21.9 59 +40 +40 очень
душно
1009.1 1008.2
10 21.04 штиль 0 н/о н/о +28.4 +22.9 72 +38 +38 очень
душно
1009.5 1008.6
12 21.04 штиль 0 н/о н/о +24.5 +22.2 87 +32 +32 очень
душно
1010.8 1009.9
13 21.04 штиль 0 н/о н/о +23.8 +21.9 89 +31 +31 очень
душно
1011.2 1010.3 +37.6
15 21.04 штиль 0 н/о н/о +22.9 +22.2 96 +31 +31 очень
душно
1011.2 1010.3
16 21.04 штиль 0 н/о н/о +22.5 +22.0 97 +30 +30 очень
душно
1010.9 1010.0
18 21.04 штиль 0 н/о н/о +23.4 +23.4 100 +33 +33 очень
душно
1010.7 1009.8
19 21.04 Ю 2 н/о н/о +22.8 +22.8 100 +31 +31 очень
душно
1010.6 1009.7
21 21.04 ЮЗ 1 н/о н/о +22.7 +22.7 100 +31 +31 очень
душно
1010.6 1009.7
22 21.04 ЮЗ 2 н/о н/о +22.9 +22.9 100 +32 +32 очень
душно
1010.8 1009.9
00 22.04 ЮЗ 2 н/о н/о +27.0 +23.3 80 +36 +36 очень
душно
1011.8 1010.9
01 22.04 З 2 н/о н/о +31.0 +18.7 48 +36 +36 очень
душно
1012.2 1011.3 +22.2
03 22.04 С 2 н/о н/о +36.4 +18.5 35 +41 +41 опасность
перегрева
1011.4 1010.5
04 22.04 С 4 н/о н/о +34.8 +22.2 48 +44 +44 опасность
перегрева
1010.4 1009.5
06 22.04 СЗ 4 н/о н/о +33.8 +23.2 54 +44 +44 опасность
перегрева
1009.2 1008.3
07 22.04 СЗ 4 н/о н/о +33.5 +22.9 54 +44 +44 опасность
перегрева
1009.0 1008.1
09 22.04 З 5 н/о н/о +30.9 +24.8 70 +44 +44 опасность
перегрева
1009.5 1008.6
10 22.04 СЗ 3 н/о н/о +28.9 +24.9 79 +41 +41 опасность
перегрева
1010.0 1009.1
12 22.04 З 3 н/о н/о +27.5 +27.2 98 +43 +43 опасность
перегрева
1011.2 1010.3
13 22.04 ЮЗ 3 н/о н/о +27.0 +27.0 100 +42 +42 опасность
перегрева
1011.4 1010.5 +36.8
15 22.04 ЮЗ 2 н/о н/о +25.7 +25.7 100 +38 +38 очень
душно
1011.1 1010.2
16 22.04 штиль 0 н/о н/о +24.7 +24.7 100 +35 +35 очень
душно
1010.7 1009.8
18 22.04 штиль 0 н/о н/о +22.6 +22.6 100 +31 +31 очень
душно
1009.9 1009.0
19 22.04 ЮЗ 2 н/о н/о +23.1 +23.1 100 +32 +32 очень
душно
1009.9 1009.0
21 22.04 Ю 2 н/о н/о +21.5 +21.0 97 +27 +27 душно 1010.2 1009.3
22 22.04 штиль 0 н/о н/о +21.4 +21.4 100 +27 +27 душно 1010.5 1009.6
00 23.04 В 2 н/о н/о +27.9 +24.5 82 +39 +39 очень
душно
1011.8 1010.9
01 23.04 В 2 н/о н/о +31.3 +21.2 55 +39 +39 очень
душно
1011.9 1011.0 +21.3
03 23.04 СВ 3 н/о н/о +35.9 +21.0 42 +43 +43 опасность
перегрева
1010.8 1009.9
04 23.04 СВ 3 н/о н/о +38.9 +16.5 27 +41 +41 опасность
перегрева
1009.9 1009.0
06 23.04 С 4 н/о н/о +38.0 +16.9 29 +41 +41 опасность
перегрева
1008.3 1007.4
07 23.04 С 4 н/о н/о +37.4 +14.7 26 +38 +38 душно 1008.0 1007.1
09 23.04 СЗ 2 н/о н/о +33.1 +22.2 53 +42 +42 опасность
перегрева
1008.9 1008.0
10 23.04 З 2 н/о н/о +29.7 +22.9 67 +40 +40 очень
душно
1009.4 1008.5
12 23.04 ЮЗ 2 н/о н/о +26.1 +23.6 86 +35 +35 очень
душно
1010.5 1009.6
13 23.04 ЮЗ 3 н/о н/о +25.6 +23.3 87 +34 +34 очень
душно
1010.8 1009.9 +39.8
15 23.04 Ю 3 н/о н/о +25.7 +21.8 79 +33 +33 очень
душно
1010.5 1009.6
16 23.04 ЮВ 2 н/о н/о +23.6 +21.1 86 +30 +30 очень
душно
1010.4 1009.5
18 23.04 штиль 0 н/о н/о +21.9 +20.5 92 +28 +28 душно 1009.8 1008.9
19 23.04 Ю 3 н/о н/о +21.5 +19.2 87 +26 +26 душно 1009.8 1008.9
21 23.04 Ю 2 н/о н/о +20.3 +18.4 89 +24 +24 комфорт 1009.6 1008.7
22 23.04 Ю 3 н/о н/о +22.0 +16.9 73 +26 +26 душно 1010.1 1009.2
00 24.04 В 2 н/о н/о +27.9 +20.5 64 +35 +35 очень
душно
1011.7 1010.8
01 24.04 В 2 н/о н/о +31.2 +18.2 46 +36 +36 очень
душно
1011.8 1010.9 +20.0
03 24.04 СВ 2 н/о н/о +33.8 +19.1 42 +39 +39 очень
душно
1010.9 1010.0
04 24.04 СВ 3 н/о н/о +36.3 +17.4 33 +40 +40 очень
душно
1009.8 1008.9
06 24.04 С 3 н/о н/о +37.8 +11.7 21 +37 +37 очень
жарко
1008.5 1007.6
07 24.04 С 4 н/о н/о +36.6 +14.0 26 +37 +37 очень
жарко
1008.4 1007.5
09 24.04 СЗ 3 н/о н/о +32.9 +18.7 43 +38 +38 очень
душно
1008.5 1007.6
10 24.04 СЗ 3 н/о н/о +29.3 +20.7 60 +36 +36 очень
душно
1009.2 1008.3
12 24.04 З 2 н/о н/о +25.0 +22.1 84 +32 +32 очень
душно
1010.2 1009.3
13 24.04 ЮЗ 3 н/о н/о +24.7 +21.0 80 +31 +31 очень
душно
1010.4 1009.5 +38.7
15 24.04 ЮВ 3 н/о н/о +22.9 +18.9 78 +29 +29 очень
душно
1010.1 1009.2
18 24.04 Ю 3 н/о н/о +21.0 +15.1 69 +25 +25 комфорт 1009.2 1008.3
19 24.04 Ю 3 н/о н/о +20.1 +14.9 72 +23 +23 комфорт 1009.2 1008.3

 

Местоположение метеостанции Mandora (Западная Австралия, Австралия): широта -19.73 долгота 120.85 высота над уровнем моря 8 м.

В архиве по умолчанию представлена погода в Mandora за последнюю неделю. Архивные данные за месяц целиком и за предыдущие месяцы, начиная с января 2011 года, Вы можете получить, выбрав интересующий диапазон дат из раскрывающегося списка и нажав кнопку "Ввод!".


*Определитесь, кто Вы:
робот инопланетянин человек

Внимание! Время в таблицах - всемирное. Для получения местного времени необходимо прибавить поправку, которая в Mandora равна 8 ч.

Смотрите также архив погоды в соседних городах и на ближайших метеорологических станциях:

Погода в Marble Bar (Западная Австралия, Австралия) (198 км)
Погода в Port Hedland Apardoo (Западная Австралия, Австралия) (242 км)
Погода в Broome Airport (Западная Австралия, Австралия) (246 км)
Погода в West Roebuck (Западная Австралия, Австралия) (256 км)
Погода в Telfer Aero (Западная Австралия, Австралия) (262 км)
Погода в Rowley Shoals (Западная Австралия, Австралия) (316 км)
Погода в Curtin Aero (Западная Австралия, Австралия) (394 км)
Погода в Derby Aero (Северная территория, Австралия) (397 км)
Погода в Roebourne Aero (Западная Австралия, Австралия) (402 км)
Погода в Newman Aero (Западная Австралия, Австралия) (423 км)

Пояснения к столбцам:

Ветер - указаны скорость ветра в м/с - средняя за 10 мин, порывы в срок и между сроками (в фигурных скобках) и направление, откуда дует ветер: С - северный, СВ - северо-восточный, В - восточный, ЮВ - юго-восточный, Ю - южный, ЮЗ - юго-западный, З - западный, СЗ - северо-западный.
Видимость - горизонтальная дальность видимости в метрах или километрах. При видимости от 1 до 10 км при отсутствии осадков обычно наблюдается дымка, при ухудшении видимости до 1 км и менее - туман. В сухую погоду видимость может ухудшаться дымом, пылью или мглою.
Явления - указаны атмосферные явления, наблюдавшиеся в срок или в последний час перед сроком; фигурными скобками обозначены явления, наблюдавшиеся между сроками (за 1-3 часа до срока); квадратными скобками обозначены град или гололедные отложения с указанием их диаметра в мм.
Облачность - указаны через наклонную черту общая и нижняя облачность в баллах и высота нижней границы облаков в метрах; квадратными скобками обозначены формы облаков: Ci - перистые, Cs - перисто-слоистые, Cc - перисто-кучевые, Ac - высококучевые, As - высокослоистые, Sc - слоисто-кучевые, Ns - слоисто-дождевые, Cu - кучевые, Cb - кучево-дождевые. Подробнее классификацию облаков см. в Атласе облаков (PDF).
T - Температура воздуха - температура, измеренная на высоте 2 м над землей.
Td - Температура точки росы - температура, при понижении до которой содержащийся в воздухе водяной пар достигнет насыщения.
f - Относительная влажность воздуха - влажноcть воздуха, измеренная на высоте 2 м над землей.
Te - Эффективная температура - температура, которую ощущает одетый по сезону человек в тени. Характеристика душности погоды. При расчете учитывается влияние влажности воздуха и скорости ветра на теплоощущения человека.
Tes - Эффективная температура на солнце - температура, которую ощущает человек, с поправкой на солнечный нагрев. Характеристика знойности погоды. Зависит от высоты солнца над горизонтом, облачности и скорости ветра. Ночью, в пасмурную погоду, а также при ветре 12 м/с и более поправка равна нулю.
P - Атмосферное давление - приведенное к уровню моря атмосферное давление.
Po - Атмосферное давление - измеренное на уровне метеостанции атмосферное давление.
Tmin - Минимальная температура - минимум температуры воздуха на высоте 2 м над землей.
Tmax - Максимальная температура - максимум температуры воздуха на высоте 2 м над землей.
R - Количество осадков - Количество выпавших осадков за период времени, мм. При наведении курсора мыши на число - период времени, за который выпало указанное количество осадков.
R24 - Количество осадков - Количество выпавших осадков за 24 часа, мм.
S - Снежный покров - Высота снежного покрова, см. При наведении курсора мыши на число - состояние снежного покрова и степень покрытия местности в баллах.